SAS407 ESSA-EKCH

Flight info

Callsign SAS407
Flight time 0h 58m
Altitude 38000
Route PETEV N872 ELPAX DCT TOKSI N872 ERNOV
Aircraft A319/M-SDE3FGIJ1RWXY/LB1

Departure

Time 2026-05-05 14:00
Airport Stockholm-Arlanda Airport (ESSA)

Arrival

Time 2026-05-05 14:58
Airport Copenhagen Kastrup Airport (EKCH)
Time Latitude Longitude Altitude Speed Heading
2026-05-05 13:31 59.64430 17.92692 138 ft 0 kts 52°
2026-05-05 13:49 59.64415 17.92655 138 ft 4 kts 50°
2026-05-05 13:49 59.64397 17.92615 138 ft 4 kts 48°
2026-05-05 13:49 59.64379 17.92575 138 ft 4 kts 46°
2026-05-05 13:49 59.64360 17.92537 138 ft 4 kts 43°
2026-05-05 13:50 59.64340 17.92502 138 ft 4 kts 38°
2026-05-05 13:50 59.64318 17.92472 138 ft 4 kts 20°
2026-05-05 13:50 59.64298 17.92467 138 ft 4 kts 309°
2026-05-05 13:50 59.64285 17.92509 138 ft 4 kts 295°
2026-05-05 13:51 59.64276 17.92547 138 ft 0 kts 297°
2026-05-05 13:57 59.64280 17.92530 138 ft 4 kts 295°
2026-05-05 13:57 59.64300 17.92443 138 ft 10 kts 295°
2026-05-05 13:57 59.64338 17.92295 138 ft 13 kts 300°
2026-05-05 13:58 59.64392 17.92108 138 ft 13 kts 299°
2026-05-05 13:58 59.64431 17.91963 138 ft 14 kts 297°
2026-05-05 13:58 59.64501 17.91810 139 ft 17 kts 340°
2026-05-05 13:58 59.64619 17.91740 144 ft 17 kts 345°
2026-05-05 13:59 59.64923 17.91755 144 ft 57 kts 10°
2026-05-05 13:59 59.65545 17.91978 144 ft 122 kts 10°
2026-05-05 14:00 59.67145 17.92544 909 ft 140 kts
2026-05-05 14:00 59.68115 17.92784 1480 ft 143 kts 353°
2026-05-05 14:00 59.69077 17.92053 1806 ft 159 kts 320°
2026-05-05 14:00 59.69703 17.90105 2123 ft 183 kts 283°
2026-05-05 14:01 59.69645 17.87420 2472 ft 209 kts 261°
2026-05-05 14:01 59.69392 17.84563 3316 ft 212 kts 261°
2026-05-05 14:01 59.69133 17.81673 4210 ft 215 kts 260°
2026-05-05 14:01 59.68876 17.78749 5110 ft 216 kts 261°
2026-05-05 14:02 59.68496 17.75785 5776 ft 233 kts 254°
2026-05-05 14:02 59.67953 17.72581 6293 ft 258 kts 245°
2026-05-05 14:02 59.66809 17.69776 7083 ft 269 kts 222°
2026-05-05 14:02 59.65382 17.67360 8047 ft 271 kts 221°
2026-05-05 14:03 59.63927 17.64945 8989 ft 275 kts 221°
2026-05-05 14:03 59.62450 17.62510 9886 ft 278 kts 221°
2026-05-05 14:03 59.60913 17.59975 10344 ft 300 kts 221°
2026-05-05 14:03 59.59258 17.57242 10729 ft 318 kts 220°
2026-05-05 14:04 59.57544 17.54428 11433 ft 324 kts 221°
2026-05-05 14:04 59.55817 17.51575 12203 ft 325 kts 221°
2026-05-05 14:04 59.54079 17.48702 13011 ft 327 kts 222°
2026-05-05 14:04 59.52329 17.45810 13804 ft 330 kts 222°
2026-05-05 14:05 59.50565 17.42901 14597 ft 332 kts 222°
2026-05-05 14:05 59.48784 17.39961 15358 ft 335 kts 223°
2026-05-05 14:05 59.46990 17.37008 16081 ft 337 kts 223°
2026-05-05 14:05 59.45183 17.34048 16778 ft 340 kts 223°
2026-05-05 14:06 59.43358 17.31073 17460 ft 342 kts 222°
2026-05-05 14:06 59.41521 17.28086 18122 ft 344 kts 223°
2026-05-05 14:06 59.39673 17.25076 18777 ft 347 kts 223°
2026-05-05 14:06 59.37809 17.22031 19405 ft 350 kts 223°
2026-05-05 14:07 59.35924 17.18972 20014 ft 354 kts 223°
2026-05-05 14:07 59.34018 17.15888 20608 ft 357 kts 223°
2026-05-05 14:07 59.32096 17.12787 21154 ft 360 kts 222°
2026-05-05 14:07 59.30157 17.09649 21718 ft 363 kts 222°
2026-05-05 14:08 59.28205 17.06487 22232 ft 366 kts 222°
2026-05-05 14:08 59.26231 17.03294 22732 ft 369 kts 222°
2026-05-05 14:08 59.24245 17.00083 23224 ft 372 kts 222°
2026-05-05 14:08 59.22244 16.96844 23717 ft 375 kts 223°
2026-05-05 14:09 59.20230 16.93583 24183 ft 378 kts 222°
2026-05-05 14:09 59.18200 16.90300 24639 ft 381 kts 222°
2026-05-05 14:09 59.16154 16.87003 25090 ft 383 kts 222°
2026-05-05 14:09 59.14090 16.83690 25520 ft 386 kts 222°
2026-05-05 14:10 59.12008 16.80358 25936 ft 389 kts 222°
2026-05-05 14:10 59.09910 16.77014 26350 ft 391 kts 222°
2026-05-05 14:10 59.07796 16.73659 26755 ft 394 kts 221°
2026-05-05 14:10 59.05667 16.70286 27159 ft 396 kts 221°
2026-05-05 14:11 59.03523 16.66893 27555 ft 399 kts 221°
2026-05-05 14:11 59.01393 16.63524 27935 ft 401 kts 221°
2026-05-05 14:11 58.99221 16.60096 28303 ft 404 kts 221°
2026-05-05 14:11 58.97036 16.56646 28670 ft 406 kts 221°
2026-05-05 14:12 58.94837 16.53177 29022 ft 409 kts 221°
2026-05-05 14:12 58.92629 16.49702 29365 ft 411 kts 221°
2026-05-05 14:12 58.90402 16.46209 29704 ft 413 kts 221°
2026-05-05 14:12 58.88161 16.42703 30037 ft 415 kts 221°
2026-05-05 14:13 58.85906 16.39178 30349 ft 418 kts 221°
2026-05-05 14:13 58.83640 16.35639 30655 ft 420 kts 221°
2026-05-05 14:13 58.81365 16.32093 30940 ft 422 kts 221°
2026-05-05 14:13 58.79074 16.28527 31264 ft 423 kts 221°
2026-05-05 14:14 58.76785 16.24972 31670 ft 423 kts 221°
2026-05-05 14:14 58.74497 16.21432 32080 ft 422 kts 221°
2026-05-05 14:14 58.72211 16.17899 32466 ft 421 kts 221°
2026-05-05 14:14 58.69928 16.14372 32858 ft 420 kts 221°
2026-05-05 14:15 58.67644 16.10840 33173 ft 422 kts 221°
2026-05-05 14:15 58.65359 16.07313 33556 ft 421 kts 221°
2026-05-05 14:15 58.63081 16.03804 33953 ft 420 kts 221°
2026-05-05 14:15 58.60802 16.00306 34338 ft 419 kts 221°
2026-05-05 14:16 58.58524 15.96823 34691 ft 419 kts 220°
2026-05-05 14:16 58.56241 15.93336 35023 ft 420 kts 220°
2026-05-05 14:16 58.53958 15.89851 35319 ft 420 kts 220°
2026-05-05 14:16 58.51666 15.86354 35609 ft 421 kts 220°
2026-05-05 14:17 58.49373 15.82870 35891 ft 422 kts 220°
2026-05-05 14:17 58.47070 15.79378 36168 ft 423 kts 220°
2026-05-05 14:17 58.44763 15.75884 36434 ft 424 kts 220°
2026-05-05 14:17 58.42446 15.72381 36697 ft 425 kts 220°
2026-05-05 14:18 58.40139 15.68887 37034 ft 423 kts 220°
2026-05-05 14:18 58.37844 15.65421 37425 ft 420 kts 220°
2026-05-05 14:18 58.35552 15.61971 37719 ft 419 kts 220°
2026-05-05 14:18 58.33259 15.58528 37865 ft 420 kts 220°
2026-05-05 14:19 58.28669 15.51649 37895 ft 420 kts 220°
2026-05-05 14:19 58.24081 15.44786 37897 ft 420 kts 220°
2026-05-05 14:20 58.19485 15.37944 37899 ft 420 kts 220°
2026-05-05 14:20 58.14880 15.31124 37897 ft 420 kts 220°
2026-05-05 14:21 58.10277 15.24321 37895 ft 420 kts 220°
2026-05-05 14:21 58.05670 15.17531 37890 ft 420 kts 220°
2026-05-05 14:22 58.01066 15.10763 37882 ft 419 kts 220°
2026-05-05 14:22 57.96459 15.04005 37886 ft 420 kts 219°
2026-05-05 14:23 57.91847 14.97268 37884 ft 420 kts 219°
2026-05-05 14:23 57.87227 14.90561 37885 ft 420 kts 219°
2026-05-05 14:24 57.82603 14.83864 37888 ft 420 kts 219°
2026-05-05 14:24 57.77978 14.77165 37887 ft 420 kts 219°
2026-05-05 14:25 57.73341 14.70497 37891 ft 420 kts 219°
2026-05-05 14:25 57.68729 14.63892 37893 ft 420 kts 219°
2026-05-05 14:26 57.64080 14.57257 37897 ft 421 kts 219°
2026-05-05 14:26 57.59432 14.50624 37897 ft 421 kts 219°
2026-05-05 14:27 57.55149 14.44524 37900 ft 421 kts 219°
2026-05-05 14:27 57.50495 14.37925 37898 ft 421 kts 219°
2026-05-05 14:28 57.45835 14.31344 37897 ft 421 kts 219°
2026-05-05 14:28 57.41175 14.24787 37900 ft 421 kts 219°
2026-05-05 14:29 57.36506 14.18239 37900 ft 421 kts 219°
2026-05-05 14:29 57.31843 14.11708 37633 ft 419 kts 219°
2026-05-05 14:30 57.29519 14.08449 37142 ft 419 kts 219°
2026-05-05 14:30 57.27200 14.05204 36642 ft 418 kts 219°
2026-05-05 14:30 57.24881 14.01965 36123 ft 417 kts 219°
2026-05-05 14:30 57.22563 13.98739 35492 ft 418 kts 219°
2026-05-05 14:31 57.20231 13.95499 34764 ft 422 kts 219°
2026-05-05 14:31 57.17883 13.92241 34098 ft 423 kts 219°
2026-05-05 14:31 57.15535 13.88988 33460 ft 422 kts 219°
2026-05-05 14:31 57.13215 13.85779 32783 ft 423 kts 219°
2026-05-05 14:32 57.10864 13.82529 32052 ft 423 kts 219°
2026-05-05 14:32 57.08499 13.79289 31329 ft 424 kts 218°
2026-05-05 14:32 57.06142 13.76078 30704 ft 421 kts 218°
2026-05-05 14:32 57.03787 13.72877 29997 ft 420 kts 218°
2026-05-05 14:33 57.01450 13.69695 29372 ft 417 kts 218°
2026-05-05 14:33 56.99130 13.66534 28762 ft 413 kts 218°
2026-05-05 14:33 56.96834 13.63403 28149 ft 410 kts 218°
2026-05-05 14:33 56.94560 13.60308 27708 ft 403 kts 218°
2026-05-05 14:34 56.92325 13.57281 27223 ft 397 kts 218°
2026-05-05 14:34 56.90116 13.54288 26678 ft 393 kts 218°
2026-05-05 14:34 56.87930 13.51321 26118 ft 390 kts 218°
2026-05-05 14:34 56.85763 13.48384 25558 ft 386 kts 218°
2026-05-05 14:35 56.83610 13.45473 24994 ft 383 kts 218°
2026-05-05 14:35 56.81477 13.42593 24456 ft 380 kts 218°
2026-05-05 14:35 56.79360 13.39740 23919 ft 377 kts 218°
2026-05-05 14:35 56.77258 13.36907 23396 ft 374 kts 218°
2026-05-05 14:36 56.75175 13.34103 22881 ft 371 kts 218°
2026-05-05 14:36 56.73104 13.31322 22385 ft 368 kts 218°
2026-05-05 14:36 56.71047 13.28572 21889 ft 366 kts 218°
2026-05-05 14:36 56.69003 13.25849 21379 ft 363 kts 218°
2026-05-05 14:37 56.66974 13.23152 20865 ft 360 kts 218°
2026-05-05 14:37 56.64960 13.20470 20338 ft 358 kts 218°
2026-05-05 14:37 56.62958 13.17800 19831 ft 356 kts 218°
2026-05-05 14:37 56.60968 13.15145 19358 ft 354 kts 218°
2026-05-05 14:38 56.58992 13.12513 18907 ft 352 kts 218°
2026-05-05 14:38 56.57022 13.09893 18515 ft 350 kts 218°
2026-05-05 14:38 56.55063 13.07291 18144 ft 348 kts 218°
2026-05-05 14:38 56.53107 13.04705 17762 ft 347 kts 218°
2026-05-05 14:39 56.51162 13.02143 17387 ft 345 kts 218°
2026-05-05 14:39 56.49229 12.99597 17012 ft 343 kts 218°
2026-05-05 14:39 56.47330 12.97093 16640 ft 342 kts 218°
2026-05-05 14:39 56.45410 12.94567 16263 ft 340 kts 218°
2026-05-05 14:40 56.43501 12.92052 15874 ft 338 kts 218°
2026-05-05 14:40 56.41611 12.89567 15358 ft 335 kts 218°
2026-05-05 14:40 56.39734 12.87105 14817 ft 332 kts 218°
2026-05-05 14:40 56.37867 12.84663 14277 ft 330 kts 218°
2026-05-05 14:41 56.36010 12.82238 13750 ft 329 kts 218°
2026-05-05 14:41 56.34168 12.79835 13224 ft 326 kts 218°
2026-05-05 14:41 56.32336 12.77451 12681 ft 324 kts 218°
2026-05-05 14:41 56.30512 12.75084 12149 ft 322 kts 218°
2026-05-05 14:42 56.28700 12.72728 11610 ft 320 kts 218°
2026-05-05 14:42 56.26900 12.70383 11075 ft 319 kts 218°
2026-05-05 14:42 56.25107 12.68046 10522 ft 318 kts 218°
2026-05-05 14:42 56.23335 12.65742 10294 ft 308 kts 217°
2026-05-05 14:43 56.21637 12.63541 10169 ft 295 kts 217°
2026-05-05 14:43 56.19999 12.61424 10028 ft 286 kts 217°
2026-05-05 14:43 56.18389 12.59372 9747 ft 283 kts 214°
2026-05-05 14:43 56.16607 12.57909 9392 ft 283 kts 198°
2026-05-05 14:44 56.14656 12.57394 9034 ft 285 kts 182°
2026-05-05 14:44 56.12673 12.57426 8660 ft 284 kts 180°
2026-05-05 14:44 56.10696 12.57452 8295 ft 284 kts 180°
2026-05-05 14:44 56.08722 12.57474 7960 ft 283 kts 181°
2026-05-05 14:45 56.06763 12.57494 7617 ft 281 kts 180°
2026-05-05 14:45 56.04811 12.57516 7285 ft 280 kts 181°
2026-05-05 14:45 56.02872 12.57532 6961 ft 279 kts 180°
2026-05-05 14:45 56.00939 12.57546 6637 ft 277 kts 180°
2026-05-05 14:46 55.99013 12.57562 6329 ft 276 kts 180°
2026-05-05 14:46 55.97100 12.57576 5990 ft 274 kts 180°
2026-05-05 14:46 55.95207 12.57388 5672 ft 271 kts 193°
2026-05-05 14:46 55.93426 12.56526 5548 ft 260 kts 196°
2026-05-05 14:47 55.91706 12.55689 5420 ft 252 kts 196°
2026-05-05 14:47 55.90026 12.54874 5164 ft 249 kts 196°
2026-05-05 14:47 55.88921 12.54336 5002 ft 248 kts 196°
2026-05-05 14:47 55.86734 12.53265 4767 ft 240 kts 196°
2026-05-05 14:48 55.85669 12.52743 4657 ft 239 kts 196°
2026-05-05 14:48 55.84074 12.51959 4493 ft 237 kts 196°
2026-05-05 14:48 55.82485 12.51177 4325 ft 237 kts 196°
2026-05-05 14:48 55.80899 12.50399 4192 ft 236 kts 196°
2026-05-05 14:49 55.79319 12.49627 4071 ft 235 kts 196°
2026-05-05 14:49 55.77746 12.48862 3958 ft 231 kts 196°
2026-05-05 14:49 55.76232 12.48126 3834 ft 222 kts 196°
2026-05-05 14:49 55.74756 12.47408 3713 ft 216 kts 196°
2026-05-05 14:50 55.73313 12.46702 3581 ft 215 kts 196°
2026-05-05 14:50 55.71872 12.46002 3475 ft 214 kts 196°
2026-05-05 14:50 55.70435 12.45312 3358 ft 214 kts 195°
2026-05-05 14:50 55.68963 12.44922 3233 ft 215 kts 186°
2026-05-05 14:51 55.67477 12.44689 3124 ft 214 kts 185°
2026-05-05 14:51 55.65994 12.44477 3030 ft 214 kts 185°
2026-05-05 14:51 55.64512 12.44267 2929 ft 213 kts 185°
2026-05-05 14:51 55.63062 12.44071 2801 ft 204 kts 185°
2026-05-05 14:52 55.61675 12.43895 2678 ft 196 kts 185°
2026-05-05 14:52 55.60335 12.43731 2531 ft 190 kts 185°
2026-05-05 14:52 55.59028 12.43580 2429 ft 187 kts 185°
2026-05-05 14:52 55.57734 12.43435 2331 ft 185 kts 185°
2026-05-05 14:53 55.56453 12.43291 2227 ft 184 kts 185°
2026-05-05 14:53 55.55180 12.43141 2133 ft 182 kts 185°
2026-05-05 14:53 55.53915 12.42992 2052 ft 182 kts 184°
2026-05-05 14:53 55.52733 12.43612 2047 ft 182 kts 142°
2026-05-05 14:54 55.51966 12.45430 2015 ft 189 kts 113°
2026-05-05 14:54 55.51832 12.47704 1918 ft 188 kts 82°
2026-05-05 14:54 55.52350 12.49703 1764 ft 180 kts 52°
2026-05-05 14:54 55.53256 12.51170 1565 ft 174 kts 43°
2026-05-05 14:55 55.54213 12.52641 1344 ft 185 kts 40°
2026-05-05 14:55 55.55132 12.54053 1110 ft 163 kts 40°
2026-05-05 14:55 55.55921 12.55271 904 ft 140 kts 39°
2026-05-05 14:55 55.56621 12.56350 728 ft 129 kts 39°
2026-05-05 14:56 55.57287 12.57374 561 ft 126 kts 39°
2026-05-05 14:56 55.57943 12.58383 390 ft 124 kts 39°
2026-05-05 14:56 55.58595 12.59386 218 ft 124 kts 40°
2026-05-05 14:56 55.59244 12.60387 61 ft 123 kts 40°
2026-05-05 14:57 55.59855 12.61325 25 ft 102 kts 41°
2026-05-05 14:57 55.60257 12.61948 24 ft 53 kts 40°
2026-05-05 14:57 55.60553 12.62394 26 ft 58 kts 41°
2026-05-05 14:57 55.60870 12.62896 25 ft 65 kts 41°
2026-05-05 14:58 55.61215 12.63434 28 ft 55 kts 41°
2026-05-05 14:58 55.61465 12.63821 25 ft 38 kts 41°
2026-05-05 14:58 55.61592 12.63954 27 ft 14 kts
2026-05-05 14:58 55.61686 12.63948 27 ft 12 kts 358°
2026-05-05 14:59 55.61760 12.63939 24 ft 12 kts 357°
2026-05-05 14:59 55.61838 12.64018 24 ft 15 kts 40°
2026-05-05 14:59 55.61936 12.64123 24 ft 18 kts 23°
2026-05-05 14:59 55.62060 12.64228 24 ft 22 kts 25°
2026-05-05 15:00 55.62162 12.64312 23 ft 15 kts 26°
2026-05-05 15:00 55.62221 12.64362 23 ft 15 kts 25°
2026-05-05 15:00 55.62337 12.64422 26 ft 14 kts 14°
2026-05-05 15:00 55.62417 12.64460 26 ft 9 kts 16°
2026-05-05 15:01 55.62492 12.64480 24 ft 8 kts 338°
2026-05-05 15:01 55.62527 12.64410 24 ft 7 kts 323°
2026-05-05 15:01 55.62566 12.64442 25 ft 0 kts 33°
2026-05-05 15:01 55.62567 12.64443 25 ft 1 kts 32°
2026-05-05 15:02 55.62572 12.64449 24 ft 1 kts 32°
2026-05-05 15:02 55.62579 12.64456 24 ft 1 kts 33°
2026-05-05 15:02 55.62582 12.64460 24 ft 0 kts 33°